Time,TemperatureF,DewpointF,PressureIn,WindDirection,WindDirectionDegrees,WindSpeedMPH,WindSpeedGustMPH,Humidity,HourlyPrecipIn,Conditions,Clouds,dailyrainin,SolarRadiationWatts/m^2,SoftwareType,DateUTC
2013-04-16 00:00:00,50.4,48.2,30.33,ESE,114,12.0,13.0,92,0.00,,,0.00,0,Wunderground v.1.15,2013-04-16 04:00:00,
2013-04-16 00:02:00,50.4,48.2,30.33,ESE,120,12.0,13.0,92,0.00,,,0.00,0,Wunderground v.1.15,2013-04-16 04:02:00,
2013-04-16 00:06:00,50.4,48.2,30.33,SE,133,12.0,13.0,92,0.00,,,0.00,0,Wunderground v.1.15,2013-04-16 04:06:00,
2013-04-16 00:08:00,50.4,48.2,30.33,ESE,121,12.0,14.0,92,0.00,,,0.00,0,Wunderground v.1.15,2013-04-16 04:08:00,
2013-04-16 00:10:00,50.5,48.0,30.33,SE,126,12.0,12.0,91,0.00,,,0.00,0,Wunderground v.1.15,2013-04-16 04:10:00,
2013-04-16 00:15:00,50.5,48.0,30.33,ESE,110,12.0,14.0,91,0.00,,,0.00,0,Wunderground v.1.15,2013-04-16 04:15:00,
2013-04-16 00:22:00,50.5,48.0,30.33,ESE,123,12.0,13.0,91,0.00,,,0.00,0,Wunderground v.1.15,2013-04-16 04:22:00,
2013-04-16 00:27:00,50.6,48.1,30.33,ESE,118,13.0,15.0,91,0.00,,,0.00,0,Wunderground v.1.15,2013-04-16 04:27:00,
2013-04-16 00:36:00,50.6,48.1,30.32,ESE,119,13.0,15.0,91,0.00,,,0.00,0,Wunderground v.1.15,2013-04-16 04:36:00,
2013-04-16 00:42:00,50.6,48.1,30.33,SE,125,13.0,13.0,91,0.00,,,0.00,0,Wunderground v.1.15,2013-04-16 04:42:00,
2013-04-16 00:48:00,50.6,48.1,30.33,ESE,123,13.0,15.0,91,0.00,,,0.00,0,Wunderground v.1.15,2013-04-16 04:48:00,
2013-04-16 00:55:00,50.7,48.2,30.33,ESE,118,13.0,14.0,91,0.00,,,0.00,0,Wunderground v.1.15,2013-04-16 04:55:00,
2013-04-16 01:02:00,50.7,48.2,30.32,SE,128,13.0,15.0,91,0.00,,,0.00,0,Wunderground v.1.15,2013-04-16 05:02:00,
2013-04-16 01:08:00,50.7,48.2,30.32,SE,126,14.0,15.0,91,0.00,,,0.00,0,Wunderground v.1.15,2013-04-16 05:08:00,
2013-04-16 01:16:00,50.8,48.3,30.32,ESE,123,13.0,16.0,91,0.00,,,0.00,0,Wunderground v.1.15,2013-04-16 05:16:00,
2013-04-16 01:22:00,50.8,48.3,30.32,SE,128,13.0,15.0,91,0.00,,,0.00,0,Wunderground v.1.15,2013-04-16 05:22:00,
2013-04-16 01:28:00,50.9,48.4,30.32,SE,128,13.0,15.0,91,0.00,,,0.00,0,Wunderground v.1.15,2013-04-16 05:28:00,
2013-04-16 01:36:00,50.9,48.4,30.32,SE,133,13.0,16.0,91,0.00,,,0.00,0,Wunderground v.1.15,2013-04-16 05:36:00,
2013-04-16 01:41:00,51.0,48.5,30.31,SE,133,14.0,14.0,91,0.00,,,0.00,0,Wunderground v.1.15,2013-04-16 05:41:00,
2013-04-16 01:48:00,50.9,48.4,30.31,SE,132,13.0,14.0,91,0.00,,,0.00,0,Wunderground v.1.15,2013-04-16 05:48:00,
2013-04-16 01:53:00,50.9,48.4,30.31,SE,134,13.0,14.0,91,0.00,,,0.00,0,Wunderground v.1.15,2013-04-16 05:53:00,
2013-04-16 02:00:00,51.0,48.5,30.31,SE,133,13.0,13.0,91,0.00,,,0.00,0,Wunderground v.1.15,2013-04-16 06:00:00,
2013-04-16 02:05:00,51.0,48.5,30.31,SE,138,13.0,14.0,91,0.00,,,0.00,0,Wunderground v.1.15,2013-04-16 06:05:00,
2013-04-16 02:11:00,51.0,48.5,30.30,SE,135,12.0,13.0,91,0.00,,,0.00,0,Wunderground v.1.15,2013-04-16 06:11:00,
2013-04-16 02:18:00,51.0,48.5,30.30,SE,128,12.0,13.0,91,0.00,,,0.00,0,Wunderground v.1.15,2013-04-16 06:18:00,
2013-04-16 02:26:00,51.0,48.5,30.30,SE,138,12.0,12.0,91,0.00,,,0.00,0,Wunderground v.1.15,2013-04-16 06:26:00,
2013-04-16 02:31:00,51.0,48.5,30.30,SE,128,12.0,12.0,91,0.00,,,0.00,0,Wunderground v.1.15,2013-04-16 06:31:00,
2013-04-16 02:37:00,51.0,48.5,30.30,SE,141,12.0,13.0,91,0.00,,,0.00,0,Wunderground v.1.15,2013-04-16 06:37:00,
2013-04-16 02:46:00,51.0,48.5,30.30,SE,130,12.0,12.0,91,0.00,,,0.00,0,Wunderground v.1.15,2013-04-16 06:46:00,
2013-04-16 02:52:00,51.1,48.6,30.30,ESE,123,12.0,12.0,91,0.00,,,0.00,0,Wunderground v.1.15,2013-04-16 06:52:00,
2013-04-16 02:58:00,51.2,48.7,30.30,SE,136,12.0,12.0,91,0.00,,,0.00,0,Wunderground v.1.15,2013-04-16 06:58:00,
2013-04-16 03:03:00,51.2,48.7,30.30,SE,134,11.0,12.0,91,0.00,,,0.00,0,Wunderground v.1.15,2013-04-16 07:03:00,
2013-04-16 03:10:00,51.2,48.7,30.30,SE,138,12.0,12.0,91,0.00,,,0.00,0,Wunderground v.1.15,2013-04-16 07:10:00,
2013-04-16 03:16:00,51.2,48.7,30.30,SE,136,12.0,12.0,91,0.00,,,0.00,0,Wunderground v.1.15,2013-04-16 07:16:00,
2013-04-16 03:21:00,51.2,48.7,30.30,SE,142,11.0,12.0,91,0.00,,,0.00,0,Wunderground v.1.15,2013-04-16 07:21:00,
2013-04-16 03:28:00,51.2,48.7,30.30,SE,140,11.0,12.0,91,0.00,,,0.00,0,Wunderground v.1.15,2013-04-16 07:28:00,
2013-04-16 03:36:00,51.2,48.7,30.31,SE,127,10.0,11.0,91,0.00,,,0.00,0,Wunderground v.1.15,2013-04-16 07:36:00,
2013-04-16 03:41:00,51.2,48.7,30.31,SE,137,10.0,11.0,91,0.00,,,0.00,0,Wunderground v.1.15,2013-04-16 07:41:00,
2013-04-16 03:47:00,51.1,48.6,30.31,SE,138,9.0,11.0,91,0.00,,,0.00,0,Wunderground v.1.15,2013-04-16 07:47:00,
2013-04-16 03:56:00,51.1,48.6,30.31,SE,138,9.0,10.0,91,0.00,,,0.00,0,Wunderground v.1.15,2013-04-16 07:56:00,
2013-04-16 04:02:00,51.1,48.6,30.31,SE,140,9.0,9.0,91,0.00,,,0.00,0,Wunderground v.1.15,2013-04-16 08:02:00,
2013-04-16 04:08:00,51.0,48.5,30.31,SE,144,9.0,10.0,91,0.00,,,0.00,0,Wunderground v.1.15,2013-04-16 08:08:00,
2013-04-16 04:13:00,51.0,48.5,30.31,SE,139,9.0,10.0,91,0.00,,,0.00,0,Wunderground v.1.15,2013-04-16 08:13:00,
2013-04-16 04:20:00,51.0,48.5,30.31,SE,141,9.0,10.0,91,0.00,,,0.00,0,Wunderground v.1.15,2013-04-16 08:20:00,
2013-04-16 04:26:00,51.1,48.6,30.31,SE,139,10.0,11.0,91,0.00,,,0.00,0,Wunderground v.1.15,2013-04-16 08:26:00,
2013-04-16 04:31:00,51.1,48.9,30.31,SE,138,10.0,11.0,92,0.00,,,0.00,0,Wunderground v.1.15,2013-04-16 08:31:00,
2013-04-16 04:38:00,51.1,48.9,30.31,SE,140,11.0,12.0,92,0.00,,,0.00,0,Wunderground v.1.15,2013-04-16 08:38:00,
2013-04-16 04:45:00,51.1,48.9,30.30,SE,130,12.0,13.0,92,0.00,,,0.00,0,Wunderground v.1.15,2013-04-16 08:45:00,
2013-04-16 04:52:00,51.2,49.0,30.30,SSE,151,12.0,12.0,92,0.00,,,0.00,0,Wunderground v.1.15,2013-04-16 08:52:00,
2013-04-16 04:58:00,51.3,49.1,30.30,SE,144,12.0,13.0,92,0.00,,,0.00,0,Wunderground v.1.15,2013-04-16 08:58:00,
2013-04-16 05:05:00,51.3,49.1,30.30,SE,130,13.0,13.0,92,0.00,,,0.00,0,Wunderground v.1.15,2013-04-16 09:05:00,
2013-04-16 05:12:00,51.4,49.2,30.30,SE,140,13.0,13.0,92,0.00,,,0.00,0,Wunderground v.1.15,2013-04-16 09:12:00,
2013-04-16 05:17:00,51.4,49.2,30.30,SE,140,12.0,13.0,92,0.00,,,0.00,0,Wunderground v.1.15,2013-04-16 09:17:00,
2013-04-16 05:24:00,51.4,49.2,30.30,SE,144,12.0,13.0,92,0.00,,,0.00,0,Wunderground v.1.15,2013-04-16 09:24:00,
2013-04-16 05:30:00,51.4,49.2,30.31,SE,133,12.0,13.0,92,0.00,,,0.00,0,Wunderground v.1.15,2013-04-16 09:30:00,
2013-04-16 05:35:00,51.4,49.2,30.30,SE,137,13.0,15.0,92,0.00,,,0.00,0,Wunderground v.1.15,2013-04-16 09:35:00,
2013-04-16 05:42:00,51.4,49.2,30.31,SE,132,13.0,13.0,92,0.00,,,0.00,0,Wunderground v.1.15,2013-04-16 09:42:00,
2013-04-16 05:48:00,51.4,49.2,30.31,SE,144,12.0,15.0,92,0.00,,,0.00,0,Wunderground v.1.15,2013-04-16 09:48:00,
2013-04-16 05:54:00,51.4,49.2,30.31,SE,140,11.0,12.0,92,0.00,,,0.00,0,Wunderground v.1.15,2013-04-16 09:54:00,
2013-04-16 06:00:00,51.4,49.2,30.31,SE,138,11.0,11.0,92,0.00,,,0.00,0,Wunderground v.1.15,2013-04-16 10:00:00,
2013-04-16 06:05:00,51.4,49.2,30.31,SSE,156,11.0,12.0,92,0.00,,,0.00,0,Wunderground v.1.15,2013-04-16 10:05:00,
2013-04-16 06:12:00,51.4,49.2,30.31,SE,134,11.0,11.0,92,0.00,,,0.00,0,Wunderground v.1.15,2013-04-16 10:12:00,
2013-04-16 06:18:00,51.4,49.2,30.31,SE,140,10.0,11.0,92,0.00,,,0.00,0,Wunderground v.1.15,2013-04-16 10:18:00,
2013-04-16 06:24:00,51.4,49.2,30.31,SE,138,10.0,10.0,92,0.00,,,0.00,5,Wunderground v.1.15,2013-04-16 10:24:00,
2013-04-16 06:30:00,51.4,49.2,30.31,SE,140,9.0,9.0,92,0.00,,,0.00,11,Wunderground v.1.15,2013-04-16 10:30:00,
2013-04-16 06:36:00,51.4,49.2,30.31,SE,144,9.0,10.0,92,0.00,,,0.00,14,Wunderground v.1.15,2013-04-16 10:36:00,
2013-04-16 06:42:00,51.5,49.3,30.32,SSE,149,10.0,10.0,92,0.00,,,0.00,19,Wunderground v.1.15,2013-04-16 10:42:00,
2013-04-16 06:48:00,51.5,49.3,30.32,SSE,148,9.0,10.0,92,0.00,,,0.00,28,Wunderground v.1.15,2013-04-16 10:48:00,
2013-04-16 06:56:00,51.5,49.3,30.32,SSE,150,7.0,8.0,92,0.00,,,0.00,49,Wunderground v.1.15,2013-04-16 10:56:00,
2013-04-16 07:02:00,51.6,49.4,30.32,SSE,150,7.0,7.0,92,0.00,,,0.00,70,Wunderground v.1.15,2013-04-16 11:02:00,
2013-04-16 07:08:00,51.7,49.5,30.32,SSE,150,7.0,8.0,92,0.00,,,0.00,77,Wunderground v.1.15,2013-04-16 11:08:00,
2013-04-16 07:16:00,51.8,49.5,30.33,SSE,151,7.0,9.0,92,0.00,,,0.00,141,Wunderground v.1.15,2013-04-16 11:16:00,
2013-04-16 07:21:00,51.9,49.9,30.33,SSE,151,6.0,6.0,93,0.00,,,0.00,144,Wunderground v.1.15,2013-04-16 11:21:00,
2013-04-16 07:27:00,52.1,50.1,30.33,SSE,151,5.0,6.0,93,0.00,,,0.00,128,Wunderground v.1.15,2013-04-16 11:27:00,
2013-04-16 07:34:00,52.2,49.9,30.33,SSE,151,4.0,4.0,92,0.00,,,0.00,125,Wunderground v.1.15,2013-04-16 11:34:00,
2013-04-16 07:40:00,52.3,50.0,30.33,SSE,151,2.0,2.0,92,0.00,,,0.00,186,Wunderground v.1.15,2013-04-16 11:40:00,
2013-04-16 07:48:00,52.9,50.6,30.33,SSE,151,1.0,3.0,92,0.00,,,0.00,243,Wunderground v.1.15,2013-04-16 11:48:00,
2013-04-16 07:54:00,53.2,50.6,30.33,SSE,151,2.0,5.0,91,0.00,,,0.00,216,Wunderground v.1.15,2013-04-16 11:54:00,
2013-04-16 08:00:00,53.1,50.2,30.33,SSE,151,5.0,5.0,90,0.00,,,0.00,243,Wunderground v.1.15,2013-04-16 12:00:00,
2013-04-16 08:06:00,53.1,50.2,30.33,SSE,151,4.0,6.0,90,0.00,,,0.00,258,Wunderground v.1.15,2013-04-16 12:06:00,
2013-04-16 08:12:00,53.3,50.4,30.34,SSE,151,2.0,3.0,90,0.00,,,0.00,278,Wunderground v.1.15,2013-04-16 12:12:00,
2013-04-16 08:18:00,53.7,50.8,30.34,SSE,151,2.0,6.0,90,0.00,,,0.00,329,Wunderground v.1.15,2013-04-16 12:18:00,
2013-04-16 08:24:00,53.7,50.5,30.34,SSE,151,4.0,7.0,89,0.00,,,0.00,297,Wunderground v.1.15,2013-04-16 12:24:00,
2013-04-16 08:29:00,53.1,49.9,30.34,SSE,151,5.0,5.0,89,0.00,,,0.00,265,Wunderground v.1.15,2013-04-16 12:29:00,
2013-04-16 08:36:00,53.4,50.5,30.34,SSE,151,3.0,5.0,90,0.00,,,0.00,302,Wunderground v.1.15,2013-04-16 12:36:00,
2013-04-16 08:42:00,54.2,51.0,30.34,SSE,151,2.0,2.0,89,0.00,,,0.00,251,Wunderground v.1.15,2013-04-16 12:42:00,
2013-04-16 08:47:00,54.5,51.0,30.34,SSE,151,2.0,4.0,88,0.00,,,0.00,227,Wunderground v.1.15,2013-04-16 12:47:00,
2013-04-16 08:54:00,54.6,50.8,30.34,SSE,151,3.0,6.0,87,0.00,,,0.00,209,Wunderground v.1.15,2013-04-16 12:54:00,
2013-04-16 09:00:00,54.4,50.6,30.34,SSE,155,4.0,4.0,87,0.00,,,0.00,450,Wunderground v.1.15,2013-04-16 13:00:00,
2013-04-16 09:05:00,54.7,50.9,30.34,SSE,157,3.0,4.0,87,0.00,,,0.00,457,Wunderground v.1.15,2013-04-16 13:05:00,
2013-04-16 09:12:00,54.9,50.8,30.34,SSE,159,3.0,4.0,86,0.00,,,0.00,469,Wunderground v.1.15,2013-04-16 13:12:00,
2013-04-16 09:17:00,55.2,51.1,30.34,SSE,160,3.0,5.0,86,0.00,,,0.00,487,Wunderground v.1.15,2013-04-16 13:17:00,
2013-04-16 09:24:00,55.7,51.3,30.34,SSE,163,3.0,6.0,85,0.00,,,0.00,504,Wunderground v.1.15,2013-04-16 13:24:00,
2013-04-16 09:30:00,55.6,51.2,30.35,South,171,4.0,6.0,85,0.00,,,0.00,512,Wunderground v.1.15,2013-04-16 13:30:00,
2013-04-16 09:35:00,55.4,51.0,30.35,South,178,5.0,8.0,85,0.00,,,0.00,540,Wunderground v.1.15,2013-04-16 13:35:00,
2013-04-16 09:42:00,55.3,51.2,30.35,South,180,5.0,5.0,86,0.00,,,0.00,559,Wunderground v.1.15,2013-04-16 13:42:00,
2013-04-16 09:47:00,55.9,51.5,30.35,South,180,4.0,7.0,85,0.00,,,0.00,573,Wunderground v.1.15,2013-04-16 13:47:00,
2013-04-16 09:54:00,56.1,51.3,30.35,South,180,4.0,6.0,84,0.00,,,0.00,591,Wunderground v.1.15,2013-04-16 13:54:00,
2013-04-16 10:00:00,55.9,51.1,30.35,South,180,4.0,4.0,84,0.00,,,0.00,603,Wunderground v.1.15,2013-04-16 14:00:00,
2013-04-16 10:05:00,56.1,51.7,30.35,South,180,4.0,5.0,85,0.00,,,0.00,621,Wunderground v.1.15,2013-04-16 14:05:00,
2013-04-16 10:12:00,56.5,51.7,30.35,SSW,192,5.0,5.0,84,0.00,,,0.00,638,Wunderground v.1.15,2013-04-16 14:12:00,
2013-04-16 10:18:00,56.6,51.8,30.35,SSW,195,6.0,6.0,84,0.00,,,0.00,657,Wunderground v.1.15,2013-04-16 14:18:00,
2013-04-16 10:26:00,56.5,51.7,30.35,SSW,202,6.0,6.0,84,0.00,,,0.00,680,Wunderground v.1.15,2013-04-16 14:26:00,
2013-04-16 10:32:00,57.1,52.3,30.35,SSW,207,5.0,8.0,84,0.00,,,0.00,524,Wunderground v.1.15,2013-04-16 14:32:00,
2013-04-16 10:38:00,56.8,52.0,30.35,SSW,210,6.0,8.0,84,0.00,,,0.00,657,Wunderground v.1.15,2013-04-16 14:38:00,
2013-04-16 10:46:00,57.0,52.2,30.35,SSW,210,6.0,6.0,84,0.00,,,0.00,715,Wunderground v.1.15,2013-04-16 14:46:00,
2013-04-16 10:52:00,57.1,52.3,30.34,SSW,210,5.0,7.0,84,0.00,,,0.00,726,Wunderground v.1.15,2013-04-16 14:52:00,
2013-04-16 10:58:00,57.0,51.9,30.34,SSW,213,6.0,7.0,83,0.00,,,0.00,733,Wunderground v.1.15,2013-04-16 14:58:00,
2013-04-16 11:04:00,56.9,52.4,30.34,SW,214,6.0,7.0,85,0.00,,,0.00,751,Wunderground v.1.15,2013-04-16 15:04:00,
2013-04-16 11:09:00,56.9,52.1,30.34,SW,215,6.0,7.0,84,0.00,,,0.00,759,Wunderground v.1.15,2013-04-16 15:09:00,
2013-04-16 11:16:00,57.1,52.6,30.34,SW,220,7.0,8.0,85,0.00,,,0.00,772,Wunderground v.1.15,2013-04-16 15:16:00,
2013-04-16 11:22:00,57.8,52.7,30.34,SW,219,6.0,7.0,83,0.00,,,0.00,780,Wunderground v.1.15,2013-04-16 15:22:00,
2013-04-16 11:28:00,57.6,52.8,30.34,SW,221,6.0,8.0,84,0.00,,,0.00,791,Wunderground v.1.15,2013-04-16 15:28:00,
2013-04-16 11:34:00,58.1,53.3,30.34,SW,221,6.0,8.0,84,0.00,,,0.00,800,Wunderground v.1.15,2013-04-16 15:34:00,
2013-04-16 11:39:00,58.3,53.2,30.34,SW,223,6.0,6.0,83,0.00,,,0.00,809,Wunderground v.1.15,2013-04-16 15:39:00,
2013-04-16 11:46:00,58.4,53.3,30.34,SW,226,7.0,8.0,83,0.00,,,0.00,814,Wunderground v.1.15,2013-04-16 15:46:00,
2013-04-16 11:52:00,58.7,53.2,30.33,SW,224,7.0,10.0,82,0.00,,,0.00,823,Wunderground v.1.15,2013-04-16 15:52:00,
2013-04-16 11:58:00,58.2,53.1,30.33,SW,225,8.0,11.0,83,0.00,,,0.00,828,Wunderground v.1.15,2013-04-16 15:58:00,
2013-04-16 12:04:00,57.7,52.9,30.33,SW,225,8.0,9.0,84,0.00,,,0.00,835,Wunderground v.1.15,2013-04-16 16:04:00,
2013-04-16 12:09:00,57.8,53.3,30.33,SW,220,8.0,8.0,85,0.00,,,0.00,842,Wunderground v.1.15,2013-04-16 16:09:00,
2013-04-16 12:16:00,58.3,53.8,30.33,SW,225,7.0,8.0,85,0.00,,,0.00,847,Wunderground v.1.15,2013-04-16 16:16:00,
2013-04-16 12:22:00,57.9,53.1,30.33,SW,227,8.0,9.0,84,0.00,,,0.00,849,Wunderground v.1.15,2013-04-16 16:22:00,
2013-04-16 12:27:00,58.1,53.6,30.33,SSW,213,8.0,12.0,85,0.00,,,0.00,854,Wunderground v.1.15,2013-04-16 16:27:00,
2013-04-16 12:34:00,58.1,53.3,30.33,SW,223,8.0,11.0,84,0.00,,,0.00,858,Wunderground v.1.15,2013-04-16 16:34:00,
2013-04-16 12:40:00,58.1,53.3,30.33,SW,225,7.0,8.0,84,0.00,,,0.00,860,Wunderground v.1.15,2013-04-16 16:40:00,
2013-04-16 12:46:00,58.2,53.4,30.33,SSW,212,7.0,9.0,84,0.00,,,0.00,861,Wunderground v.1.15,2013-04-16 16:46:00,
2013-04-16 12:52:00,58.3,53.5,30.33,South,190,7.0,7.0,84,0.00,,,0.00,865,Wunderground v.1.15,2013-04-16 16:52:00,
2013-04-16 12:57:00,58.1,53.0,30.32,SW,222,6.0,7.0,83,0.00,,,0.00,865,Wunderground v.1.15,2013-04-16 16:57:00,
2013-04-16 13:04:00,58.0,53.2,30.32,SSW,204,7.0,10.0,84,0.00,,,0.00,865,Wunderground v.1.15,2013-04-16 17:04:00,
2013-04-16 13:09:00,58.0,53.2,30.32,South,173,6.0,6.0,84,0.00,,,0.00,868,Wunderground v.1.15,2013-04-16 17:09:00,
2013-04-16 13:16:00,58.0,53.2,30.32,SSW,192,6.0,6.0,84,0.00,,,0.00,868,Wunderground v.1.15,2013-04-16 17:16:00,
2013-04-16 13:21:00,58.1,53.0,30.32,SSE,168,6.0,8.0,83,0.00,,,0.00,838,Wunderground v.1.15,2013-04-16 17:21:00,
2013-04-16 13:28:00,57.8,53.0,30.32,SE,142,7.0,10.0,84,0.00,,,0.00,861,Wunderground v.1.15,2013-04-16 17:28:00,
2013-04-16 13:33:00,57.5,52.7,30.31,SSE,158,7.0,12.0,84,0.00,,,0.00,861,Wunderground v.1.15,2013-04-16 17:33:00,
2013-04-16 13:40:00,57.6,52.8,30.31,SSE,153,7.0,7.0,84,0.00,,,0.00,856,Wunderground v.1.15,2013-04-16 17:40:00,
2013-04-16 13:46:00,57.6,52.8,30.31,ESE,115,6.0,7.0,84,0.00,,,0.00,856,Wunderground v.1.15,2013-04-16 17:46:00,
2013-04-16 13:51:00,57.5,53.0,30.31,SW,214,7.0,8.0,85,0.00,,,0.00,853,Wunderground v.1.15,2013-04-16 17:51:00,
2013-04-16 13:58:00,57.3,52.8,30.31,SSE,154,7.0,14.0,85,0.00,,,0.00,847,Wunderground v.1.15,2013-04-16 17:58:00,
2013-04-16 14:04:00,57.4,52.9,30.31,SSE,153,7.0,11.0,85,0.00,,,0.00,842,Wunderground v.1.15,2013-04-16 18:04:00,
2013-04-16 14:10:00,57.3,52.8,30.30,SW,225,6.0,8.0,85,0.00,,,0.00,831,Wunderground v.1.15,2013-04-16 18:10:00,
2013-04-16 14:16:00,57.3,52.8,30.30,SSE,159,7.0,8.0,85,0.00,,,0.00,830,Wunderground v.1.15,2013-04-16 18:16:00,
2013-04-16 14:22:00,57.3,52.8,30.30,South,171,7.0,7.0,85,0.00,,,0.00,823,Wunderground v.1.15,2013-04-16 18:22:00,
2013-04-16 14:28:00,57.5,53.0,30.30,SE,140,7.0,9.0,85,0.00,,,0.00,814,Wunderground v.1.15,2013-04-16 18:28:00,
2013-04-16 14:34:00,57.6,52.8,30.30,South,169,7.0,7.0,84,0.00,,,0.00,795,Wunderground v.1.15,2013-04-16 18:34:00,
2013-04-16 14:39:00,57.3,52.8,30.29,SE,138,8.0,8.0,85,0.00,,,0.00,795,Wunderground v.1.15,2013-04-16 18:39:00,
2013-04-16 14:46:00,57.1,52.6,30.29,SSE,167,8.0,9.0,85,0.00,,,0.00,789,Wunderground v.1.15,2013-04-16 18:46:00,
2013-04-16 14:52:00,57.1,53.0,30.29,SSE,157,8.0,9.0,86,0.00,,,0.00,779,Wunderground v.1.15,2013-04-16 18:52:00,
2013-04-16 14:58:00,56.9,52.8,30.28,ESE,121,9.0,12.0,86,0.00,,,0.00,765,Wunderground v.1.15,2013-04-16 18:58:00,
2013-04-16 15:03:00,56.8,52.7,30.28,SSE,155,10.0,11.0,86,0.00,,,0.00,766,Wunderground v.1.15,2013-04-16 19:03:00,
2013-04-16 15:09:00,56.9,53.1,30.28,SW,231,9.0,9.0,87,0.00,,,0.00,807,Wunderground v.1.15,2013-04-16 19:09:00,
2013-04-16 15:16:00,57.4,53.2,30.28,SE,146,7.0,10.0,86,0.00,,,0.00,313,Wunderground v.1.15,2013-04-16 19:16:00,
2013-04-16 15:21:00,57.1,52.6,30.27,SSE,159,6.0,7.0,85,0.00,,,0.00,306,Wunderground v.1.15,2013-04-16 19:21:00,
2013-04-16 15:28:00,56.8,53.0,30.27,WSW,239,6.0,7.0,87,0.00,,,0.00,737,Wunderground v.1.15,2013-04-16 19:28:00,
2013-04-16 15:34:00,57.2,53.0,30.27,SSW,196,7.0,13.0,86,0.00,,,0.00,700,Wunderground v.1.15,2013-04-16 19:34:00,
2013-04-16 15:40:00,57.4,53.2,30.26,SSE,153,7.0,11.0,86,0.00,,,0.00,691,Wunderground v.1.15,2013-04-16 19:40:00,
2013-04-16 15:46:00,57.5,53.3,30.26,South,179,7.0,11.0,86,0.00,,,0.00,686,Wunderground v.1.15,2013-04-16 19:46:00,
2013-04-16 15:52:00,57.3,53.1,30.26,SSW,207,8.0,10.0,86,0.00,,,0.00,671,Wunderground v.1.15,2013-04-16 19:52:00,
2013-04-16 15:58:00,57.2,53.0,30.26,SE,145,7.0,11.0,86,0.00,,,0.00,642,Wunderground v.1.15,2013-04-16 19:58:00,
2013-04-16 16:06:00,57.1,53.0,30.25,SSE,147,7.0,12.0,86,0.00,,,0.00,619,Wunderground v.1.15,2013-04-16 20:06:00,
2013-04-16 16:12:00,57.1,53.0,30.25,SE,129,7.0,9.0,86,0.00,,,0.00,606,Wunderground v.1.15,2013-04-16 20:12:00,
2013-04-16 16:18:00,57.0,53.2,30.26,South,174,7.0,9.0,87,0.00,,,0.00,587,Wunderground v.1.15,2013-04-16 20:18:00,
2013-04-16 16:26:00,57.0,53.2,30.25,SSE,158,7.0,10.0,87,0.00,,,0.00,563,Wunderground v.1.15,2013-04-16 20:26:00,
2013-04-16 16:32:00,57.2,53.4,30.24,SSE,150,7.0,7.0,87,0.00,,,0.00,547,Wunderground v.1.15,2013-04-16 20:32:00,
2013-04-16 16:38:00,57.3,53.5,30.25,SE,145,7.0,7.0,87,0.00,,,0.00,531,Wunderground v.1.15,2013-04-16 20:38:00,
2013-04-16 16:46:00,57.4,53.6,30.25,South,172,6.0,7.0,87,0.00,,,0.00,506,Wunderground v.1.15,2013-04-16 20:46:00,
2013-04-16 16:51:00,57.4,53.6,30.25,SW,217,6.0,12.0,87,0.00,,,0.00,489,Wunderground v.1.15,2013-04-16 20:51:00,
2013-04-16 16:57:00,57.4,53.6,30.24,SSW,211,8.0,12.0,87,0.00,,,0.00,471,Wunderground v.1.15,2013-04-16 20:57:00,
2013-04-16 17:05:00,57.4,53.6,30.25,SW,219,9.0,11.0,87,0.00,,,0.00,446,Wunderground v.1.15,2013-04-16 21:05:00,
2013-04-16 17:12:00,57.3,53.5,30.25,SSW,206,9.0,10.0,87,0.00,,,0.00,424,Wunderground v.1.15,2013-04-16 21:12:00,
2013-04-16 17:17:00,57.3,53.5,30.25,South,183,9.0,10.0,87,0.00,,,0.00,408,Wunderground v.1.15,2013-04-16 21:17:00,
2013-04-16 17:26:00,57.2,53.4,30.25,SSW,202,6.0,8.0,87,0.00,,,0.00,381,Wunderground v.1.15,2013-04-16 21:26:00,
2013-04-16 17:32:00,57.2,53.4,30.25,SW,216,6.0,8.0,87,0.00,,,0.00,360,Wunderground v.1.15,2013-04-16 21:32:00,
2013-04-16 17:38:00,57.2,53.4,30.25,SSW,201,8.0,8.0,87,0.00,,,0.00,341,Wunderground v.1.15,2013-04-16 21:38:00,
2013-04-16 17:46:00,57.0,53.2,30.25,SSE,161,8.0,12.0,87,0.00,,,0.00,315,Wunderground v.1.15,2013-04-16 21:46:00,
2013-04-16 17:52:00,56.7,52.9,30.25,SW,224,8.0,9.0,87,0.00,,,0.00,295,Wunderground v.1.15,2013-04-16 21:52:00,
2013-04-16 17:58:00,56.6,53.1,30.25,SW,217,9.0,10.0,88,0.00,,,0.00,274,Wunderground v.1.15,2013-04-16 21:58:00,
2013-04-16 18:06:00,56.5,53.0,30.24,SSW,198,8.0,11.0,88,0.00,,,0.00,246,Wunderground v.1.15,2013-04-16 22:06:00,
2013-04-16 18:12:00,56.4,52.9,30.24,SW,225,8.0,8.0,88,0.00,,,0.00,225,Wunderground v.1.15,2013-04-16 22:12:00,
2013-04-16 18:17:00,56.2,52.7,30.24,SW,219,9.0,11.0,88,0.00,,,0.00,204,Wunderground v.1.15,2013-04-16 22:17:00,
2013-04-16 18:26:00,56.2,53.0,30.24,SW,222,8.0,9.0,89,0.00,,,0.00,174,Wunderground v.1.15,2013-04-16 22:26:00,
2013-04-16 18:32:00,56.2,53.0,30.24,SW,220,9.0,10.0,89,0.00,,,0.00,153,Wunderground v.1.15,2013-04-16 22:32:00,
2013-04-16 18:38:00,56.4,53.5,30.24,SW,225,8.0,10.0,90,0.00,,,0.00,132,Wunderground v.1.15,2013-04-16 22:38:00,
2013-04-16 18:43:00,56.3,53.1,30.24,SW,226,9.0,13.0,89,0.00,,,0.00,107,Wunderground v.1.15,2013-04-16 22:43:00,
2013-04-16 18:49:00,56.2,53.0,30.23,SW,222,9.0,10.0,89,0.00,,,0.00,93,Wunderground v.1.15,2013-04-16 22:49:00,
2013-04-16 18:56:00,56.1,52.9,30.23,SW,223,9.0,11.0,89,0.00,,,0.00,74,Wunderground v.1.15,2013-04-16 22:56:00,
2013-04-16 19:01:00,56.0,53.1,30.23,SW,217,9.0,11.0,90,0.00,,,0.00,58,Wunderground v.1.15,2013-04-16 23:01:00,
2013-04-16 19:07:00,56.2,53.3,30.23,SW,219,8.0,11.0,90,0.00,,,0.00,42,Wunderground v.1.15,2013-04-16 23:07:00,
2013-04-16 19:14:00,56.5,53.9,30.23,SW,217,8.0,9.0,91,0.00,,,0.00,26,Wunderground v.1.15,2013-04-16 23:14:00,
2013-04-16 19:20:00,57.1,54.2,30.23,SW,219,6.0,11.0,90,0.00,,,0.00,16,Wunderground v.1.15,2013-04-16 23:20:00,
2013-04-16 19:25:00,57.0,54.1,30.23,SW,218,6.0,11.0,90,0.00,,,0.00,11,Wunderground v.1.15,2013-04-16 23:25:00,
2013-04-16 19:32:00,57.1,54.2,30.22,SW,219,7.0,8.0,90,0.00,,,0.00,7,Wunderground v.1.15,2013-04-16 23:32:00,
2013-04-16 19:37:00,56.8,53.6,30.22,SW,216,7.0,8.0,89,0.00,,,0.00,0,Wunderground v.1.15,2013-04-16 23:37:00,
2013-04-16 19:44:00,56.9,54.0,30.21,SW,215,6.0,8.0,90,0.00,,,0.00,0,Wunderground v.1.15,2013-04-16 23:44:00,
2013-04-16 19:50:00,57.2,54.3,30.21,SSW,212,7.0,7.0,90,0.00,,,0.00,0,Wunderground v.1.15,2013-04-16 23:50:00,
2013-04-16 19:55:00,57.6,54.7,30.21,SW,215,7.0,7.0,90,0.00,,,0.00,0,Wunderground v.1.15,2013-04-16 23:55:00,
2013-04-16 20:02:00,57.9,55.0,30.22,SSW,212,4.0,5.0,90,0.00,,,0.00,0,Wunderground v.1.15,2013-04-17 00:02:00,
2013-04-16 20:08:00,58.1,55.2,30.21,SSW,212,3.0,5.0,90,0.00,,,0.00,0,Wunderground v.1.15,2013-04-17 00:08:00,
2013-04-16 20:14:00,58.3,55.4,30.20,SSW,209,4.0,8.0,90,0.00,,,0.00,0,Wunderground v.1.15,2013-04-17 00:14:00,
2013-04-16 20:20:00,58.6,55.7,30.20,SSW,210,5.0,7.0,90,0.00,,,0.00,0,Wunderground v.1.15,2013-04-17 00:20:00,
2013-04-16 20:25:00,59.1,56.2,30.20,SSW,209,6.0,7.0,90,0.00,,,0.00,0,Wunderground v.1.15,2013-04-17 00:25:00,
2013-04-16 20:31:00,59.7,56.8,30.20,SW,216,5.0,10.0,90,0.00,,,0.00,0,Wunderground v.1.15,2013-04-17 00:31:00,
2013-04-16 20:38:00,60.5,57.6,30.20,SSW,211,7.0,10.0,90,0.00,,,0.00,0,Wunderground v.1.15,2013-04-17 00:38:00,
2013-04-16 20:43:00,61.2,57.9,30.19,SW,219,9.0,14.0,89,0.00,,,0.00,0,Wunderground v.1.15,2013-04-17 00:43:00,
2013-04-16 20:50:00,61.6,58.0,30.19,SSW,204,8.0,9.0,88,0.00,,,0.00,0,Wunderground v.1.15,2013-04-17 00:50:00,
2013-04-16 20:56:00,61.8,57.9,30.19,SSW,209,8.0,9.0,87,0.00,,,0.00,0,Wunderground v.1.15,2013-04-17 00:56:00,
2013-04-16 21:01:00,61.9,58.0,30.19,SSW,193,9.0,9.0,87,0.00,,,0.00,0,Wunderground v.1.15,2013-04-17 01:01:00,
2013-04-16 21:08:00,62.1,57.9,30.18,SW,215,10.0,10.0,86,0.00,,,0.00,0,Wunderground v.1.15,2013-04-17 01:08:00,
2013-04-16 21:13:00,62.1,57.9,30.18,SSW,213,8.0,11.0,86,0.00,,,0.00,0,Wunderground v.1.15,2013-04-17 01:13:00,
2013-04-16 21:19:00,62.1,57.5,30.18,SW,223,8.0,12.0,85,0.00,,,0.00,0,Wunderground v.1.15,2013-04-17 01:19:00,
2013-04-16 21:26:00,62.1,57.5,30.17,SW,215,9.0,12.0,85,0.00,,,0.00,0,Wunderground v.1.15,2013-04-17 01:26:00,
2013-04-16 21:32:00,62.2,57.6,30.17,SSW,207,9.0,9.0,85,0.00,,,0.00,0,Wunderground v.1.15,2013-04-17 01:32:00,
2013-04-16 21:38:00,62.2,57.3,30.17,SSW,198,9.0,14.0,84,0.00,,,0.00,0,Wunderground v.1.15,2013-04-17 01:38:00,
2013-04-16 21:44:00,62.2,57.3,30.17,SSW,201,10.0,12.0,84,0.00,,,0.00,0,Wunderground v.1.15,2013-04-17 01:44:00,
2013-04-16 21:50:00,62.2,57.3,30.17,SSW,211,10.0,11.0,84,0.00,,,0.00,0,Wunderground v.1.15,2013-04-17 01:50:00,
2013-04-16 21:56:00,62.2,57.3,30.17,SW,226,11.0,17.0,84,0.00,,,0.00,0,Wunderground v.1.15,2013-04-17 01:56:00,
2013-04-16 22:01:00,62.2,57.3,30.17,SSW,201,11.0,11.0,84,0.00,,,0.00,0,Wunderground v.1.15,2013-04-17 02:01:00,
2013-04-16 22:07:00,62.2,57.3,30.17,SSW,207,11.0,12.0,84,0.00,,,0.00,0,Wunderground v.1.15,2013-04-17 02:07:00,
2013-04-16 22:16:00,62.2,57.3,30.17,SSW,194,11.0,13.0,84,0.00,,,0.00,0,Wunderground v.1.15,2013-04-17 02:16:00,
2013-04-16 22:22:00,62.2,57.0,30.17,SW,223,9.0,10.0,83,0.00,,,0.00,0,Wunderground v.1.15,2013-04-17 02:22:00,
2013-04-16 22:27:00,62.3,57.1,30.18,SW,230,8.0,10.0,83,0.00,,,0.00,0,Wunderground v.1.15,2013-04-17 02:27:00,
2013-04-16 22:34:00,62.3,57.1,30.19,SW,225,8.0,8.0,83,0.00,,,0.00,0,Wunderground v.1.15,2013-04-17 02:34:00,
2013-04-16 22:39:00,62.4,57.2,30.19,SW,222,7.0,7.0,83,0.00,,,0.00,0,Wunderground v.1.15,2013-04-17 02:39:00,
2013-04-16 22:45:00,62.4,57.2,30.20,SW,233,5.0,10.0,83,0.00,,,0.00,0,Wunderground v.1.15,2013-04-17 02:45:00,
2013-04-16 22:52:00,62.5,57.3,30.20,SW,227,5.0,6.0,83,0.00,,,0.00,0,Wunderground v.1.15,2013-04-17 02:52:00,
2013-04-16 22:57:00,62.5,57.3,30.20,SW,225,6.0,7.0,83,0.00,,,0.00,0,Wunderground v.1.15,2013-04-17 02:57:00,
2013-04-16 23:04:00,62.5,57.3,30.20,WSW,238,6.0,8.0,83,0.00,,,0.00,0,Wunderground v.1.15,2013-04-17 03:04:00,
2013-04-16 23:09:00,62.5,57.3,30.20,SW,221,6.0,9.0,83,0.00,,,0.00,0,Wunderground v.1.15,2013-04-17 03:09:00,
2013-04-16 23:16:00,62.5,57.3,30.20,South,186,7.0,9.0,83,0.00,,,0.00,0,Wunderground v.1.15,2013-04-17 03:16:00,
2013-04-16 23:22:00,62.5,57.3,30.20,SW,225,6.0,6.0,83,0.00,,,0.00,0,Wunderground v.1.15,2013-04-17 03:22:00,
2013-04-16 23:27:00,62.4,57.2,30.20,SW,225,5.0,7.0,83,0.00,,,0.00,0,Wunderground v.1.15,2013-04-17 03:27:00,
2013-04-16 23:34:00,62.3,57.1,30.20,SW,227,4.0,9.0,83,0.00,,,0.00,0,Wunderground v.1.15,2013-04-17 03:34:00,
2013-04-16 23:39:00,62.2,57.0,30.20,SW,225,5.0,7.0,83,0.00,,,0.00,0,Wunderground v.1.15,2013-04-17 03:39:00,
2013-04-16 23:46:00,62.2,57.3,30.20,SW,225,5.0,7.0,84,0.00,,,0.00,0,Wunderground v.1.15,2013-04-17 03:46:00,
2013-04-16 23:52:00,62.1,57.2,30.20,SW,219,4.0,8.0,84,0.00,,,0.00,0,Wunderground v.1.15,2013-04-17 03:52:00,
2013-04-16 23:57:00,62.1,57.2,30.20,SW,219,5.0,8.0,84,0.00,,,0.00,0,Wunderground v.1.15,2013-04-17 03:57:00,